KB9LNR Weather Reports


time (UTC)temp
F
wind
direction
speed
knots
gust
knots
rain 1hr
in
rain 24hr
in
rain mn
in
humidity
%
barometer
mb
20260506033102 49 0 0.0 0.0 0.00 0.02 0.01 74 1010.8
20260506031601 49 0 0.0 0.0 0.00 0.02 0.01 72 1010.5
20260506030100 50 0 0.0 0.0 0.00 0.02 0.01 73 1010.5
20260506024605 50 0 0.0 0.0 0.00 0.07 0.01 67 1010.4
20260506023109 49 0 0.0 0.9 0.00 0.07 0.01 67 1010.4
20260506021622 50 0 0.0 0.0 0.00 0.07 0.01 66 1010.2
20260506014601 51 0 0.0 0.0 0.00 0.07 0.01 59 1009.6
20260506013111 51 0 0.0 0.0 0.00 0.07 0.01 61 1009.6
20260506011617 52 0 0.0 0.0 0.00 0.07 0.01 67 1009.5
20260506004604 52 0 0.0 0.0 0.00 0.07 0.01 53 1009.2
20260506003101 53 0 0.0 0.9 0.00 0.07 0.01 56 1009.1
20260506001559 53 0 0.0 0.0 0.00 0.07 0.01 51 1008.9
20260506000101 53 0 0.0 1.7 0.00 0.07 0.01 51 1008.9
20260505234559 53 0 0.0 1.7 0.00 0.07 0.01 50 1008.7
20260505233105 53 310 0.0 3.5 0.00 0.07 0.01 51 1009.0
20260505231609 53 0 0.0 1.7 0.00 0.07 0.01 51 1008.9
20260505230059 53 310 0.9 3.5 0.00 0.07 0.01 51 1009.0
20260505224605 53 0 0.0 3.5 0.00 0.07 0.01 52 1009.0
20260505223107 53 326 0.9 4.3 0.00 0.07 0.01 49 1009.2
20260505221604 53 309 0.0 2.6 0.00 0.07 0.01 50 1009.1
20260505220101 53 327 0.9 3.5 0.00 0.07 0.01 50 1009.1
20260505214600 53 0 0.9 3.5 0.00 0.07 0.01 50 1009.3
20260505213100 53 306 1.7 4.3 0.00 0.07 0.01 48 1009.4
20260505211600 53 0 1.7 3.5 0.00 0.07 0.01 48 1009.5
20260505210058 54 309 1.7 4.3 0.00 0.07 0.01 52 1009.5
20260505204559 54 318 1.7 6.1 0.00 0.07 0.01 52 1009.9
20260505203123 54 311 1.7 4.3 0.00 0.07 0.01 52 1009.9
20260505201604 53 288 1.7 6.1 0.00 0.07 0.01 57 1010.1
20260505194601 53 0 0.0 1.7 0.00 0.07 0.01 64 1010.6
20260505193100 52 0 0.0 1.7 0.00 0.07 0.01 65 1010.5
20260505191612 52 0 0.0 2.6 0.00 0.07 0.01 64 1010.4
20260505190100 52 294 0.9 3.5 0.00 0.07 0.01 61 1010.5
20260505184601 52 5 0.0 1.7 0.00 0.07 0.01 62 1010.6
20260505183102 52 30 0.0 2.6 0.00 0.07 0.01 66 1010.4
20260505181559 52 0 0.0 3.5 0.00 0.07 0.01 62 1010.6
20260505180103 51 0 0.0 3.5 0.00 0.07 0.01 63 1010.6
20260505174606 52 283 0.0 2.6 0.00 0.07 0.01 62 1010.8
20260505173100 51 284 2.6 4.3 0.00 0.07 0.01 57 1010.8
20260505171601 52 0 1.7 4.3 0.00 0.07 0.01 58 1010.6
20260505170111 52 0 0.0 2.6 0.00 0.07 0.01 61 1010.2
20260505164559 52 288 0.9 6.1 0.00 0.07 0.01 57 1010.1
20260505163103 52 0 0.9 3.5 0.00 0.07 0.01 60 1010.1
20260505161616 52 292 2.6 6.1 0.00 0.07 0.01 60 1010.1
20260505160104 52 328 0.9 5.2 0.00 0.07 0.01 61 1009.9
20260505153107 51 296 0.0 5.2 0.00 0.07 0.01 67 1009.6
20260505151606 50 0 2.6 7.0 0.00 0.07 0.01 69 1009.2
20260505140116 46 315 0.9 3.5 0.00 0.07 0.01 77 1009.0
20260505130106 45 319 0.9 3.5 0.01 0.07 0.01 79 1009.3
20260505124603 46 311 0.9 3.5 0.01 0.07 0.01 80 1009.6
20260505123105 47 321 1.7 4.3 0.01 0.07 0.01 77 1010.0
20260505121625 48 305 1.7 5.2 0.00 0.06 0.00 73 1010.4
20260505120100 49 298 1.7 5.2 0.00 0.06 0.00 70 1010.6
20260505114603 49 291 2.6 5.2 0.00 0.06 0.00 67 1009.6
20260505113104 49 318 1.7 4.3 0.00 0.06 0.00 68 1007.9
20260505111603 50 321 1.7 4.3 0.00 0.06 0.00 66 1007.9
20260505101559 51 311 1.7 3.5 0.00 0.06 0.00 65 1007.8
20260505100101 51 312 0.9 2.6 0.00 0.06 0.00 65 1007.5
20260505094559 51 313 0.9 2.6 0.00 0.06 0.00 65 1007.4
20260505093057 51 318 0.9 5.2 0.00 0.06 0.00 66 1006.9
20260505091558 51 322 0.9 2.6 0.00 0.06 0.00 66 1007.4
20260505090107 52 323 0.0 5.2 0.00 0.06 0.00 63 1007.0
20260505084559 53 302 0.9 3.5 0.00 0.06 0.00 62 1006.9
20260505083103 53 298 0.9 2.6 0.00 0.06 0.00 60 1006.9
20260505081559 54 333 1.7 7.0 0.00 0.06 0.00 59 1006.4
20260505080059 54 298 0.9 6.1 0.00 0.06 0.00 60 1006.0
20260505074559 54 309 0.9 4.3 0.00 0.06 0.00 60 1005.4
20260505073100 55 300 0.9 3.5 0.00 0.06 0.00 60 1005.0
20260505071601 55 300 1.7 4.3 0.00 0.06 0.00 57 1004.8
20260505064601 56 298 1.7 3.5 0.00 0.06 0.00 60 1004.6
20260505063059 57 325 1.7 4.3 0.00 0.06 0.00 60 1004.3
20260505061607 57 314 1.7 3.5 0.00 0.06 0.00 65 1004.1
20260505060110 57 311 0.0 2.6 0.00 0.06 0.00 69 1003.9
20260505054601 57 311 0.9 1.7 0.00 0.06 0.00 72 1003.8
20260505053108 58 311 0.0 1.7 0.00 0.06 0.00 71 1003.7
20260505051602 59 0 0.0 1.7 0.00 0.06 0.00 72 1003.0
20260505041557 60 0 0.0 2.6 0.00 0.06 0.06 78 1002.4
20260505040106 60 322 0.9 3.5 0.01 0.06 0.06 80 1001.9
20260505034601 60 319 0.9 3.5 0.01 0.06 0.06 81 1001.3